Location: Newark
(44.6028°N, 124.0883°W)
Time: 00:45:27
(UTC+00:00)

A-11 Canister half - Visible Passes

Search period start: 22 October 2019 00:00
Search period end: 01 November 2019 00:00
Orbit: 1514 x 1686 km, 47.2° (Epoch: 21 October)

Date Brightness Start Highest point End Pass type
(mag) Time Alt. Az. Time Alt. Az. Time Alt. Az.
22 Oct 10.8 09:06:38 19° ENE 09:06:38 19° ENE 09:08:55 10° ENE visible
22 Oct 8.9 11:04:50 83° ENE 11:04:50 83° ENE 11:14:01 10° ENE visible
22 Oct 9.1 13:03:02 23° WNW 13:09:48 78° N 13:19:17 10° E visible
23 Oct 11.1 08:45:01 13° ENE 08:45:01 13° ENE 08:45:58 10° ENE visible
23 Oct 9.2 10:43:12 66° ENE 10:43:12 66° ENE 10:51:06 10° ENE visible
23 Oct 9.1 12:41:24 31° WNW 12:46:50 77° N 12:56:21 10° E visible
24 Oct 9.6 10:21:34 51° ENE 10:21:34 51° ENE 10:28:11 10° ENE visible
24 Oct 9.0 12:19:46 41° WNW 12:23:52 77° N 12:33:25 10° E visible
25 Oct 10.0 09:59:57 39° ENE 09:59:57 39° ENE 10:05:15 10° ENE visible
25 Oct 9.0 11:58:09 53° WNW 12:00:55 77° N 12:10:29 10° E visible
25 Oct 9.1 13:56:24 10° WNW 14:06:10 78° SSW 14:15:31 10° ESE visible
26 Oct 10.3 09:38:20 29° ENE 09:38:20 29° ENE 09:42:20 10° ENE visible
26 Oct 8.9 11:36:32 67° NW 11:37:56 77° N 11:47:33 10° E visible
26 Oct 9.1 13:34:44 15° WNW 13:43:14 81° SSW 13:52:38 10° ESE visible
27 Oct 10.7 09:16:44 22° ENE 09:16:44 22° ENE 09:19:25 10° ENE visible
27 Oct 9.0 11:14:56 77° N 11:14:58 77° N 11:24:37 10° E visible
27 Oct 9.0 13:13:08 21° WNW 13:20:19 83° SSW 13:29:46 10° ESE visible
28 Oct 11.0 08:55:09 15° ENE 08:55:09 15° ENE 08:56:29 10° ENE visible
28 Oct 9.2 10:53:21 68° NE 10:53:21 68° NE 11:01:40 10° E visible
28 Oct 9.0 12:51:34 29° WNW 12:57:23 85° SSW 13:06:52 10° ESE visible
29 Oct 9.5 10:31:49 53° ENE 10:31:49 53° ENE 10:38:44 10° E visible
29 Oct 8.9 12:30:01 39° WNW 12:34:27 87° SSW 12:43:58 10° ESE visible
30 Oct 9.9 10:10:18 40° ENE 10:10:18 40° ENE 10:15:48 10° E visible
30 Oct 8.9 12:08:31 52° WNW 12:11:31 89° SSW 12:21:05 10° ESE visible
30 Oct 9.5 14:06:56 10° WNW 14:15:53 43° SW 14:24:33 10° SSE visible
31 Oct 10.3 09:48:50 29° ENE 09:48:50 29° ENE 09:52:51 10° E visible
31 Oct 8.9 11:47:03 69° WNW 11:48:34 89° NNE 11:58:11 10° ESE visible
31 Oct 9.4 13:45:15 15° WNW 13:53:02 46° SW 14:01:49 10° SSE visible
